When you browse on this site, cookies collect data to enhance your experience and personalize the content and advertising you see.
Visit our Privacy Policy to learn more. By continuing to use the site, you agree to this use of cookies and data.
  • en France
  • Liste des pays
  • À 7 jours
  • Température de l'eau
  • Carte météo
  • Widgets météo
  • user-avatar
    Se connecter

    Météo par heure à La Massana

    Ce jour, 21 Février, Vendredi

    Heure Température Précipitation Vent Pression Humidité
    00:00 -2°C° 0 mm 2 m/s 614 mmHg 75%
    01:00 -2°C° 0 mm 2 m/s 614 mmHg 75%
    02:00 -2°C° 0 mm 2 m/s 614 mmHg 75%
    03:00 -2°C° 0 mm 2 m/s 614 mmHg 75%
    04:00 0°C° 0 mm 1 m/s 614 mmHg 69%
    05:00 0°C° 0 mm 1 m/s 614 mmHg 62%
    06:00 0°C° 0 mm 1 m/s 614 mmHg 54%
    13:00 +9°C° 0 mm 1 m/s 619 mmHg 41%
    14:00 +9°C° 0 mm 1 m/s 618 mmHg 45%
    15:00 +9°C° 0 mm 1 m/s 618 mmHg 49%
    16:00 +7°C° 0 mm 1 m/s 617 mmHg 58%
    17:00 +4°C° 0 mm 1 m/s 616 mmHg 68%
    18:00 +2°C° 0 mm 1 m/s 615 mmHg 77%
    19:00 +2°C° 0 mm 1 m/s 615 mmHg 66%
    20:00 +2°C° 0 mm 1 m/s 615 mmHg 54%
    21:00 +2°C° 0 mm 1 m/s 615 mmHg 43%
    22:00 +2°C° 0 mm 1 m/s 616 mmHg 40%
    23:00 +1°C° 0 mm 2 m/s 616 mmHg 37%

    Demain, 22 Février, Samedi

    Heure Température Précipitation Vent Pression Humidité
    00:00 +1°C° 0 mm 2 m/s 616 mmHg 34%
    01:00 +1°C° 0 mm 2 m/s 616 mmHg 32%
    02:00 +1°C° 0 mm 2 m/s 616 mmHg 29%
    03:00 +1°C° 0 mm 2 m/s 615 mmHg 27%
    04:00 +1°C° 0 mm 2 m/s 616 mmHg 26%
    05:00 +1°C° 0 mm 2 m/s 616 mmHg 25%
    06:00 +1°C° 0 mm 2 m/s 616 mmHg 23%
    07:00 +3°C° 0 mm 2 m/s 617 mmHg 25%
    08:00 +6°C° 0 mm 1 m/s 619 mmHg 27%
    09:00 +8°C° 0 mm 1 m/s 620 mmHg 29%
    10:00 +10°C° 0 mm 1 m/s 620 mmHg 28%
    11:00 +11°C° 0 mm 1 m/s 621 mmHg 27%
    12:00 +12°C° 0 mm 1 m/s 622 mmHg 26%
    13:00 +12°C° 0 mm 1 m/s 621 mmHg 28%
    14:00 +12°C° 0 mm 1 m/s 621 mmHg 31%
    15:00 +11°C° 0 mm 1 m/s 621 mmHg 34%
    16:00 +9°C° 0 mm 1 m/s 620 mmHg 44%
    17:00 +6°C° 0 mm 1 m/s 619 mmHg 55%
    18:00 +3°C° 0 mm 1 m/s 618 mmHg 65%
    19:00 +3°C° 0 mm 1 m/s 618 mmHg 58%
    20:00 +3°C° 0 mm 1 m/s 618 mmHg 52%
    21:00 +3°C° 0 mm 1 m/s 618 mmHg 45%
    22:00 +3°C° 0 mm 1 m/s 618 mmHg 40%
    23:00 +3°C° 0 mm 1 m/s 619 mmHg 35%

    Après-demain, 23 Février, Dimanche

    Heure Température Précipitation Vent Pression Humidité
    00:00 +2°C° 0 mm 2 m/s 619 mmHg 29%
    01:00 +3°C° 0 mm 1 m/s 618 mmHg 27%
    02:00 +3°C° 0 mm 1 m/s 618 mmHg 26%
    03:00 +3°C° 0 mm 1 m/s 618 mmHg 24%
    04:00 +3°C° 0 mm 1 m/s 618 mmHg 23%
    05:00 +3°C° 0 mm 1 m/s 618 mmHg 22%
    06:00 +3°C° 0 mm 1 m/s 618 mmHg 21%
    07:00 +5°C° 0 mm 1 m/s 619 mmHg 23%
    08:00 +8°C° 0 mm 1 m/s 620 mmHg 25%
    09:00 +9°C° 0 mm 0 m/s 621 mmHg 27%
    10:00 +10°C° 0 mm 0 m/s 621 mmHg 26%
    11:00 +13°C° 0 mm 1 m/s 622 mmHg 24%
    12:00 +14°C° 0 mm 1 m/s 622 mmHg 23%
    13:00 +14°C° 0 mm 1 m/s 622 mmHg 26%
    14:00 +14°C° 0 mm 1 m/s 621 mmHg 29%
    15:00 +13°C° 0 mm 1 m/s 621 mmHg 32%
    16:00 +11°C° 0 mm 1 m/s 620 mmHg 38%
    17:00 +8°C° 0 mm 1 m/s 619 mmHg 45%
    18:00 +6°C° 0 mm 1 m/s 617 mmHg 51%
    19:00 +5°C° 0 mm 1 m/s 617 mmHg 48%
    20:00 +5°C° 0 mm 1 m/s 617 mmHg 44%
    21:00 +4°C° 0 mm 2 m/s 617 mmHg 40%
    22:00 +3°C° 0 mm 2 m/s 617 mmHg 40%
    23:00 +4°C° 0 mm 1 m/s 617 mmHg 39%

    24 Février, Lundi

    Heure Température Précipitation Vent Pression Humidité
    00:00 +4°C° 0 mm 1 m/s 617 mmHg 38%
    01:00 +4°C° 0 mm 1 m/s 617 mmHg 38%
    02:00 +4°C° 0 mm 1 m/s 617 mmHg 37%
    03:00 +4°C° 0 mm 1 m/s 616 mmHg 36%
    04:00 +4°C° 0 mm 1 m/s 616 mmHg 36%
    05:00 +4°C° 0 mm 1 m/s 616 mmHg 36%
    06:00 +4°C° 0 mm 1 m/s 615 mmHg 36%
    07:00 +6°C° 0 mm 1 m/s 616 mmHg 35%
    08:00 +8°C° 0 mm 1 m/s 617 mmHg 35%
    09:00 +9°C° 0 mm 0 m/s 618 mmHg 35%
    10:00 +11°C° 0 mm 1 m/s 618 mmHg 33%
    11:00 +13°C° 0 mm 1 m/s 618 mmHg 31%
    12:00 +14°C° 0 mm 1 m/s 618 mmHg 29%
    13:00 +14°C° 0 mm 1 m/s 618 mmHg 32%
    14:00 +13°C° 0 mm 1 m/s 617 mmHg 34%
    15:00 +13°C° 0 mm 1 m/s 617 mmHg 36%
    16:00 +11°C° 0 mm 1 m/s 615 mmHg 45%
    17:00 +8°C° 0 mm 1 m/s 614 mmHg 54%
    18:00 +5°C° 0 mm 1 m/s 613 mmHg 62%
    19:00 +5°C° 0 mm 1 m/s 613 mmHg 55%
    20:00 +5°C° 0 mm 1 m/s 613 mmHg 47%
    21:00 +3°C° 0 mm 2 m/s 613 mmHg 39%
    22:00 +3°C° 0 mm 2 m/s 612 mmHg 37%
    23:00 +2°C° 0 mm 2 m/s 612 mmHg 35%

    25 Février, Mardi

    Heure Température Précipitation Vent Pression Humidité
    00:00 +2°C° 0 mm 2 m/s 612 mmHg 33%
    01:00 +2°C° 0 mm 2 m/s 611 mmHg 33%
    02:00 +2°C° 0 mm 2 m/s 611 mmHg 33%
    03:00 +1°C° 0 mm 2 m/s 611 mmHg 32%
    04:00 +1°C° 0 mm 2 m/s 611 mmHg 32%
    05:00 +1°C° 0 mm 2 m/s 610 mmHg 33%
    06:00 +1°C° 0 mm 2 m/s 610 mmHg 33%
    07:00 +2°C° 0 mm 2 m/s 611 mmHg 33%
    08:00 +4°C° 0 mm 1 m/s 612 mmHg 34%
    09:00 +6°C° 0 mm 1 m/s 612 mmHg 35%
    10:00 +7°C° 0 mm 1 m/s 612 mmHg 35%
    11:00 +8°C° 0 mm 1 m/s 613 mmHg 35%
    12:00 +7°C° 0 mm 2 m/s 613 mmHg 36%
    13:00 +7°C° 0 mm 2 m/s 612 mmHg 41%
    14:00 +6°C° 0 mm 2 m/s 611 mmHg 47%
    15:00 +6°C° 0 mm 2 m/s 611 mmHg 53%
    16:00 +4°C° 0 mm 2 m/s 610 mmHg 62%
    17:00 +3°C° 0 mm 2 m/s 610 mmHg 71%
    18:00 +2°C° 0 mm 2 m/s 609 mmHg 80%
    19:00 +1°C° 0.1 mm 2 m/s 609 mmHg 84%
    20:00 +1°C° 0.1 mm 2 m/s 609 mmHg 87%
    21:00 +1°C° 0.1 mm 2 m/s 609 mmHg 90%
    22:00 -1°C° 0 mm 2 m/s 609 mmHg 91%
    23:00 -1°C° 0 mm 2 m/s 609 mmHg 91%

    26 Février, Mercredi

    Heure Température Précipitation Vent Pression Humidité
    00:00 -1°C° 0 mm 2 m/s 609 mmHg 91%
    01:00 -2°C° 0 mm 3 m/s 609 mmHg 90%
    02:00 -2°C° 0 mm 3 m/s 608 mmHg 89%
    03:00 -2°C° 0 mm 3 m/s 608 mmHg 88%
    04:00 -4°C° 0 mm 3 m/s 608 mmHg 87%
    05:00 -4°C° 0 mm 3 m/s 608 mmHg 86%
    06:00 -5°C° 0 mm 3 m/s 607 mmHg 85%
    07:00 -4°C° 0 mm 3 m/s 608 mmHg 78%
    08:00 -2°C° 0 mm 3 m/s 609 mmHg 72%
    09:00 -1°C° 0 mm 3 m/s 609 mmHg 65%
    10:00 0°C° 0.1 mm 3 m/s 610 mmHg 61%
    11:00 +1°C° 0.1 mm 3 m/s 610 mmHg 57%
    12:00 +2°C° 0.1 mm 3 m/s 611 mmHg 52%
    13:00 +2°C° 0 mm 3 m/s 610 mmHg 52%
    14:00 +2°C° 0 mm 3 m/s 610 mmHg 51%
    15:00 +1°C° 0 mm 3 m/s 610 mmHg 51%
    16:00 +1°C° 0 mm 2 m/s 609 mmHg 61%
    17:00 -2°C° 0 mm 2 m/s 609 mmHg 71%
    18:00 -3°C° 0 mm 2 m/s 608 mmHg 81%
    19:00 -4°C° 0 mm 2 m/s 609 mmHg 81%
    20:00 -4°C° 0 mm 2 m/s 609 mmHg 82%
    21:00 -4°C° 0 mm 2 m/s 609 mmHg 82%
    22:00 -2°C° 0 mm 1 m/s 609 mmHg 77%
    23:00 -2°C° 0 mm 1 m/s 609 mmHg 72%
    Voir plus